Regional Weather Roundup
Issued by NWS Grand Forks, ND

Home | Current Version | Previous Version | Graphics & Text | Print | Product List | Glossary On
Versions: 1 2 3 4 5 6 7 8 9 10 11 12 13 14 15 16 17 18 19 20 21 22 23 24 25 26 27 28 29 30 31 32 33 34 35 36 37 38 39 40 41 42 43 44 45 46 47 48 49 50
000
ASUS43 KFGF 171131
RWRFGF
PRAIRIE TO PINES  WEATHER ROUNDUP
NATIONAL WEATHER SERVICE EASTERN NORTH DAKOTA/GRAND FORKS ND
500 AM CST WED DEC 17 2014

 **SATELLITE DATA USED TO AUGMENT SKY COVER AT AUTOMATED STATIONS**
 *****  WEATHER ACROSS EASTERN NORTH DAKOTA  *****

CITY           SKY/WX    TMP DP  RH WIND       PRES   REMARKS
GRAND FORKS    CLEAR      1  -3  83 NW5       30.39R WCI  -9
GRAND FRKS AFB CLEAR      1   0  94 N5        30.38S WCI  -8
DEVILS LAKE    PTCLDY     0  -9  65 CALM      30.30F
FARGO          PTCLDY     2  -2  83 N6        30.37R WCI  -9
WAHPETON ARPT  MOSUNNY    3   0  85 NW3       30.36S
$$

 ***** WEATHER ACROSS CENTRAL AND WESTERN NORTH DAKOTA  *****

CITY           SKY/WX    TMP DP  RH WIND       PRES   REMARKS
BISMARCK       CLOUDY    14  10  84 SE6       30.29F WCI   5
MINOT          CLOUDY    10   6  84 SE6       30.26F WCI   0
JAMESTOWN      MOCLDY    -2  -6  83 N6        30.30F WCI -14
MINOT AFB      CLOUDY    12  11  98 SE7       30.26F WCI   1
GARRISON         N/A     15  11  83 SE9       30.24S WCI   3
WILLISTON      CLOUDY    20  14  77 SE8       30.18F WCI  10
DICKINSON      CLOUDY    16  12  84 S13       30.13F WCI   2
HETTINGER      CLOUDY    15  12  88 SE14      30.14F WCI   0
$$

 *****  OTHER AIRPORT OBSERVATIONS IN OUR AREA  *****

CITY           SKY/WX    TMP DP  RH WIND       PRES   REMARKS
WALHALLA         N/A     -2  -4  92 CALM      30.38F
GRAFTON AIRPOR NOT AVBL
VALLEY CITY AR FAIR       1   1 100 NW5       30.32S WCI  -8
CANDO          FOG       -2  -4  92 CALM      30.33S VSB 1/4
CAVALIER APRT  FAIR       3   0  85 N3        30.39S
GWINNER        SUNNY      5   3  92 MISG      30.34S
ROLLA          FAIR      -4  -9  77 CALM      30.30R
 ***** THE ABOVE OBSERVATIONS ARE NON NWS ARE NOT QUALITY
       CONTROLLED AND MAY MIS-REPORT RAIN FOR SNOW...
$$

  *****  WEATHER ACROSS NORTHERN MINNESOTA  *****

CITY           SKY/WX    TMP DP  RH WIND       PRES   REMARKS
FLAG ISLAND    CLOUDY     9   5  85 N10       30.32F WCI  -6
WARROAD        MOCLDY     3   0  85 NW6       30.33S WCI  -8
ROSEAU         PTCLDY     3   0  85 CALM      30.34S
HALLOCK        PTCLDY     1  -2  85 N3        30.38S
THF RVR FALLS  PTCLDY     3   0  85 N5        30.33S WCI  -6
BAUDETTE       CLOUDY    11   7  84 N9        30.30R WCI  -2
WASKISH        FLURRIES  12   9  85 CALM      30.29S
CROOKSTON      PTCLDY     1   0  92 N6        30.38S WCI -10
$$
  *****  WEATHER ACROSS CENTRAL AND WEST MINNESOTA  *****

CITY           SKY/WX    TMP DP  RH WIND       PRES   REMARKS
FOSSTON        PTCLDY     0  -4  85 CALM      30.32S
BEMIDJI        FLURRIES   8   6  91 NW7       30.27S WCI  -3
PARK RAPIDS    PTCLDY     4   1  88 W7        30.26S WCI  -8
ELBOW LAKE     FAIR       1  -2  88 NW6       30.32R WCI -10
WADENA         PTCLDY     3   1  92 NW5       30.27S WCI  -6
DETROIT LAKES  PTCLDY     3   1  92 N5        30.30S WCI  -6
MOORHEAD       PTCLDY     3   1  92 N5        30.37S WCI  -6
FERGUS FALLS   PTCLDY     0  -4  85 NW5       30.36F WCI -10
MORRIS MN      LGT SNOW   7   3  85 NW12      30.32S WCI  -9
STAPLES        MOCLDY     7   5  92 NW6       30.27S WCI  -3
$$
  *****  WEATHER ELSEWHERE ACROSS MINNESOTA  *****

CITY           SKY/WX    TMP DP  RH WIND       PRES   REMARKS
DULUTH         LGT SNOW  12   7  80 NW9       30.17S WCI   0
INTRNTL FALLS  CLOUDY    12   7  80 N7        30.27S WCI   1
ELY            LGT SNOW  10   7  85 N6        30.19S WCI   1
CLOQUET        LGT SNOW  10   7  85 NW7       30.20S WCI   0
WHEATON        PTCLDY     1   0  92 NW5       30.37S WCI  -8
BRAINERD       CLOUDY    11   7  84 NW8       30.26F WCI  -1
HIBBING        CLOUDY    12   6  77 NW12      30.21S WCI  -2
ALEXANDRIA     CLEAR      6   3  87 NW7       30.28S WCI  -6
SAINT CLOUD    PTCLDY    10   4  76 NW7       30.28S WCI  -1
MINNEAPOLIS    CLEAR     10   6  84 W8        30.29R WCI  -2
$$

  *****  WEATHER ACROSS SOUTH DAKOTA  *****

CITY           SKY/WX    TMP DP  RH WIND       PRES   REMARKS
SIOUX FALLS    MOCLDY     6   2  83 CALM      30.32F
BROOKINGS      NOT AVBL
WATERTOWN      PTCLDY     3  -1  83 CALM      30.29S
HURON          CLOUDY     1  -1  91 E5        30.33F FOG     WCI  -9
SISSETON         N/A      1  -2  87 N8        30.34R WCI -13
ABERDEEN       PTCLDY     5   0  79 N6        30.34F WCI  -6
MITCHELL       MOCLDY     6   2  83 CALM      30.34F
PIERRE         CLOUDY    17  14  88 SE9       30.25F WCI   6
MOBRIDGE       CLOUDY    17  11  77 SE9       30.24F WCI   6
RAPID CITY     CLOUDY    18  16  92 SE10      30.06F WCI   6
$$

  *****  SOME WEATHER IN NEARBY STATES *****

CITY           SKY/WX    TMP DP  RH WIND       PRES   REMARKS
GLASGOW MT     CLOUDY    18  14  84 SE14      30.08F WCI   4
GREAT FALLS MT CLOUDY    23  21  92 N3        29.90F
CHEYENNE WY    CLOUDY    30  23  75 W7        29.94F WCI  23
SCOTTSBLUFF NE PTCLDY    17  14  88 SE12      30.01F WCI   4
OMAHA NE       MOCLDY    17  12  80 N6        30.37F WCI   9
DES MOINES IA  PTCLDY    15   9  76 NW9       30.34S WCI   3
DAVENPORT IA   CLOUDY    22  15  75 W15       30.28S WCI   9
CHICAGO IL     CLOUDY    26  20  77 NW12      30.19R WCI  16
EAU CLAIRE WI  CLOUDY    19  12  74 W8        30.21S WCI   9
LA CROSSE WI   CLOUDY    23  14  68 NW9       30.25R WCI  13
$$

  *****  SOME NATIONAL WEATHER *****

CITY           SKY/WX    TMP DP  RH WIND       PRES   REMARKS
LA GUARDIA NY  MOCLDY    45  43  93 NW6       29.83R
RALEIGH NC     CLEAR     44  36  73 W6        30.05R
ATLANTA GA     CLEAR     38  34  85 NW7       30.17R
NEW ORLEANS LA CLEAR     49  38  65 NE8       30.25R
OKLAHOMA CITY  CLOUDY    38  28  67 SE7       30.25F
ALBUQUERQUE NM LGT RAIN  34  27  75 VRB5      30.03F
SALT LAKE CITY CLOUDY    33  30  88 CALM      29.97F
LOS ANGELES CA TSTM      54  54 100 CALM      29.96S
BOISE ID       CLEAR     32  30  92 CALM      29.97F
SEATTLE WA     CLOUDY    46  33  60 S3        29.82R
$$

*** WEATHER ACROSS MANITOBA...SASKATCHEWAN AND ONTARIO ***
                ***ONTARIO***

CITY           SKY/WX    TMP DP  RH WIND       PRES   REMARKS
GERALDTON      CLEAR      3  -2  78 N8        30.17R WCI -10
THUNDER BAY    FLURRIES  18  12  79 N5        30.19  WCI  11
SIOUX LOOKOUT  CRYSTALS   1  -2  85 N3        30.29S
TORONTO        CLOUDY    41  37  87 W10       29.78R
BIG TROUT LK   CLEAR    -15 -20  76 SW3       30.34F
PICKLE LAKE    FOG       -4  -8  84 N5        30.31  VSB 1   WCI -15
DRYDEN         CLOUDY     9   5  85 NE7       30.28R WCI  -3
KENORA         MOCLDY     3   1  92 N7        30.30  WCI  -9
$$
                *** MANITOBA***

CITY           SKY/WX    TMP DP  RH WIND       PRES   REMARKS
BRANDON        CLEAR     -6 -11  77 N2        30.33F
DAUPHIN        CLEAR      3   0  85 SW6       30.34F WCI  -8
ISLAND LAKE    MOCLDY     1  -2  85 S3        30.34
PILOT MOUND      N/A     -8 -11  84 E2          N/A
THE PAS        CLOUDY    18  14  86 S5        30.24F WCI  11
THOMPSON       FLURRIES  16  14  93 SW12G18   30.21F WCI   3
WINNIPEG       PTCLDY    -6 -11  77 NW5       30.40F WCI -17
LYNN LAKE      FLURRIES  12  10  92 SW8       30.11F WCI   1
CHURCHILL      CLEAR      3   1  92 SW7       30.12F WCI  -9
GILLAM         CLOUDY    12  10  92 W12G17    30.20S WCI  -2
$$
                ***SASKATCHEWAN***

CITY           SKY/WX    TMP DP  RH WIND       PRES   REMARKS
ESTEVAN        FLURRIES  18  12  79 SE9       30.20S WCI   6
KINDERSLEY     CLOUDY    19  18  93 SE14      29.98F WCI   6
LLOYDMINSTER   FLURRIES  18  16  93 SE16      29.96F WCI   3
PRINCE ALBERT  FLURRIES  19  16  86 S8        30.14  WCI   9
REGINA         CLOUDY    18  16  93 S10G20    30.16  WCI   6
YORKTON        CLOUDY    16  12  86 SE7       30.22F WCI   6
N. BATTLEFORD  CLOUDY    18  18 100 SE13      30.07F WCI   4
LA RONGE       CLOUDY    16  14  93 S5        30.13F WCI   9
SASKATOON      CLOUDY    19  18  93 SE13      30.12F WCI   7
SWIFT CURRENT  CLOUDY    16  14  93 SE20      29.98S WCI  -1
$$
NOTE: THESE ARE AUTOMATED STATIONS WITH LIMITED QUALITY CONTROL
      "FAIR" INDICATES FEW OR NO CLOUDS BELOW 12,000 FEET WITH NO
      SIGNIFICANT WEATHER AND/OR OBSTRUCTIONS TO VISIBILITY.
      SKY/WX - SKY CONDITION AND SIGNIFICANT WEATHER.
      TMP - AIR TEMPERATURE.    DP   - DEWPOINT TEMPERATURE.
      RH  - RELATIVE HUMIDITY.  PRES - PRESSURE.
      HX  - HEAT INDEX.         WCI  - WIND CHILL INDEX.
$



USA.gov is the U.S. government's official web portal to all federal, state and local government web resources and services.